This demonstration page uses our WeatherBlox Daily Observations layout. Learn more.

Left ArrowRight Arrow

40.92945, -100.16068

Hourly Observations for April 20, 2016

Temp ( °F °C ) Dew Point ( °F °C ) Humidity (%) Winds ( mph kmh ) Pressure ( in mb ) Visibility ( mi km ) Precip ( " mm )
12:15 am 00:15 Cloudy 46 7.7 43 6.1 90 90 N N/A 30.09 1019 10 16 N/A
12:35 am 00:35 Cloudy 46 7.6 43 6 90 90 N N/A 30.09 1019 10 16 N/A
12:55 am 00:55 Mostly Cloudy 45 7.2 42 5.7 90 90 N N/A 30.12 1020 10 16 N/A
1:15 am 01:15 Partly Cloudy 43 6.3 41 5 91 91 E 5 7 30.12 1020 10 16 N/A
1:35 am 01:35 Partly Cloudy 44 6.4 41 5 91 91 N N/A 30.12 1020 10 16 N/A
1:55 am 01:55 Mostly Cloudy 44 6.6 42 5.4 92 92 N N/A 30.12 1020 10 16 N/A
2:15 am 02:15 Mostly Cloudy 44 6.9 43 5.9 93 93 N N/A 30.09 1019 7 11 N/A
2:35 am 02:35 Mostly Cloudy with Mist and Fog 44 6.4 42 5.4 93 93 SE 3 6 30.09 1019 5 8 N/A
2:55 am 02:55 Cloudy 44 6.4 42 5.5 94 94 N N/A 30.09 1019 10 16 N/A
3:15 am 03:15 Cloudy with Mist and Fog 44 6.4 42 5.4 93 93 N N/A 30.09 1019 2 3 N/A
3:35 am 03:35 Cloudy with Fog 42 5.5 40 4.6 94 94 N N/A 30.09 1019 1 1 N/A
3:55 am 03:55 Cloudy with Fog 42 5.7 41 4.8 94 94 N N/A 30.09 1019 1 1 N/A
4:15 am 04:15 Cloudy with Mist and Fog 42 5.7 41 4.8 94 94 N N/A 30.09 1019 1 1 N/A
4:35 am 04:35 Cloudy with Mist and Fog 42 5.4 40 4.5 94 94 N N/A 30.09 1019 1 1 N/A
4:55 am 04:55 Cloudy with Mist and Fog 42 5.5 40 4.6 94 94 N N/A 30.09 1019 1 1 N/A
5:15 am 05:15 Cloudy with Fog 40 4.7 39 4 95 95 N N/A 30.09 1019 1 1 N/A
5:35 am 05:35 Cloudy with Mist and Fog 41 5.1 40 4.3 95 95 N N/A 30.09 1019 1 2 N/A
5:55 am 05:55 Mostly Cloudy with Fog 40 4.5 39 3.8 95 95 N N/A 30.06 1018 1 1 N/A
6:15 am 06:15 Mostly Cloudy with Fog 40 4.4 38 3.5 94 94 N N/A 30.06 1018 1 1 N/A
6:35 am 06:35 Mostly Cloudy with Fog 40 4.3 38 3.5 95 95 WNW 3 6 30.06 1018 1 1 N/A
6:55 am 06:55 Mostly Cloudy with Fog 38 3.3 37 2.5 95 95 WNW 3 6 30.09 1019 0 0 N/A
7:15 am 07:15 Mostly Cloudy with Fog 38 3.1 36 2.3 95 95 W 5 7 30.09 1019 0 0 N/A
7:35 am 07:35 Cloudy with Fog 37 2.9 36 2.3 96 96 W 5 7 30.09 1019 1 1 N/A
7:55 am 07:55 Cloudy with Mist and Fog 39 3.7 37 2.9 95 95 N N/A 30.06 1018 1 1 N/A
8:15 am 08:15 Partly Cloudy with Mist and Fog 42 5.3 40 4.5 95 95 WNW 3 6 30.06 1018 3 5 N/A
8:35 am 08:35 Sunny with Mist and Fog 43 6.3 42 5.5 95 95 NNW 3 6 30.06 1018 5 8 N/A
8:55 am 08:55 Sunny 45 7.2 44 6.4 95 95 NW 3 6 30.03 1017 7 11 N/A
9:15 am 09:15 Partly Cloudy 47 8.1 45 7.3 95 95 W 6 9 30.03 1017 10 16 N/A
9:35 am 09:35 Sunny 48 8.8 46 8 95 95 NW 8 13 30.03 1017 10 16 N/A
9:55 am 09:55 Partly Cloudy 49 9.6 47 8.3 92 92 NW 6 9 30.03 1017 10 16 N/A
10:15 am 10:15 Partly Cloudy 51 10.4 47 8.2 86 86 NW 7 11 30.00 1016 10 16 N/A
10:35 am 10:35 Partly Cloudy 52 11.1 46 7.9 81 81 NW 8 13 30.00 1016 10 16 N/A
10:55 am 10:55 Mostly Cloudy 54 12 46 8 77 77 NNW 5 7 29.97 1015 10 16 N/A
11:15 am 11:15 Cloudy 54 12.1 46 7.7 75 75 NW 5 7 29.97 1015 10 16 N/A
11:35 am 11:35 Cloudy 53 11.8 46 7.8 77 77 NW 7 11 29.97 1015 10 16 N/A
11:55 am 11:55 Mostly Cloudy 55 13 45 7.2 68 68 NW 6 9 29.94 1014 10 16 N/A
12:15 pm 12:15 Cloudy 56 13.3 45 7.2 67 67 NW 8 13 29.94 1014 10 16 N/A
12:35 pm 12:35 Cloudy 55 12.6 44 6.8 68 68 NNW 8 13 29.97 1015 10 16 N/A
12:55 pm 12:55 Cloudy 56 13.5 46 7.9 69 69 NNW 7 11 29.94 1014 10 16 N/A
1:15 pm 13:15 Cloudy 56 13.5 46 7.5 67 67 NNW 12 19 29.91 1013 10 16 N/A
1:35 pm 13:35 Cloudy 54 12.4 45 7.1 70 70 N 12 19 29.97 1015 10 16 N/A
1:55 pm 13:55 Cloudy 55 12.8 45 7.3 69 69 N 14 22 29.91 1013 10 16 N/A
2:15 pm 14:15 Cloudy 55 12.7 45 7.2 69 69 NNW 15 24 29.97 1015 10 16 N/A
2:35 pm 14:35 Cloudy 54 12.1 45 7.1 72 72 NNW 13 20 29.97 1015 10 16 N/A
2:55 pm 14:55 Cloudy 53 11.7 43 6.1 69 69 NNW 14 22 29.97 1015 10 16 N/A
3:15 pm 15:15 Cloudy 54 12.1 44 6.7 70 70 NW 12 19 29.97 1015 10 16 N/A
3:35 pm 15:35 Cloudy 55 12.6 44 6.7 68 68 NNW 14 22 29.97 1015 10 16 N/A
3:55 pm 15:55 Cloudy 56 13.1 44 6.6 65 65 NW 16 26 29.94 1014 10 16 N/A
4:15 pm 16:15 Cloudy 55 13 43 6.2 64 64 NW 16 26 29.91 1013 10 16 N/A
4:35 pm 16:35 Cloudy 55 12.8 43 6.2 64 64 NW 16 26 29.91 1013 10 16 N/A
4:55 pm 16:55 Cloudy 55 13 46 7.7 70 70 NW 16 26 29.91 1013 10 16 N/A
5:15 pm 17:15 Mostly Cloudy 55 12.9 44 6.8 67 67 NW 18 30 29.91 1013 10 16 N/A
5:35 pm 17:35 Partly Cloudy 54 12.1 45 7 71 71 NW 18 30 29.94 1014 10 16 N/A
5:55 pm 17:55 Partly Cloudy 53 11.8 44 6.9 72 72 NW 16 26 29.94 1014 10 16 N/A
6:15 pm 18:15 Mostly Cloudy 53 11.5 44 6.7 73 73 NW 17 28 29.97 1015 10 16 N/A
6:35 pm 18:35 Cloudy 52 11.3 44 6.9 75 75 NW 17 28 29.97 1015 10 16 N/A
6:55 pm 18:55 Cloudy with Drizzle 51 10.3 43 6.2 76 76 NNW 15 24 29.97 1015 10 16 N/A
7:15 pm 19:15 Mostly Cloudy 50 9.8 44 6.6 81 81 NNW 13 20 29.97 1015 10 16 N/A
7:35 pm 19:35 Partly Cloudy 50 10 44 6.8 81 81 NNW 9 15 29.94 1014 10 16 N/A
7:55 pm 19:55 Mostly Cloudy 50 10.1 44 6.9 81 81 NNW 8 13 29.94 1014 10 16 N/A
8:15 pm 20:15 Cloudy 50 10 44 6.7 80 80 NNW 8 13 29.94 1014 10 16 N/A
8:35 pm 20:35 Mostly Cloudy 49 9.5 44 6.9 84 84 NW 6 9 29.94 1014 10 16 N/A
8:55 pm 20:55 Mostly Cloudy 48 9.1 44 6.6 85 85 NW 7 11 30.00 1016 10 16 N/A
9:15 pm 21:15 Cloudy 47 8.5 43 6.1 85 85 NW 6 9 30.00 1016 10 16 N/A
9:35 pm 21:35 Cloudy 46 7.8 43 6 89 89 NW 7 11 30.00 1016 10 16 N/A
9:55 pm 21:55 Mostly Cloudy 46 7.9 43 6.2 89 89 NW 8 13 30.00 1016 10 16 N/A
10:15 pm 22:15 Partly Cloudy 46 7.9 43 6.1 89 89 NW 9 15 30.00 1016 10 16 N/A
10:35 pm 22:35 Clear 45 7.2 42 5.5 89 89 NW 6 9 30.00 1016 10 16 N/A
10:55 pm 22:55 Partly Cloudy 45 7 42 5.5 90 90 NW 8 13 30.03 1017 10 16 N/A
11:15 pm 23:15 Partly Cloudy 45 7 42 5.7 92 92 NW 7 11 30.03 1017 10 16 N/A
11:35 pm 23:35 Mostly Cloudy 46 7.6 43 6.2 91 91 WNW 7 11 30.00 1016 10 16 N/A
11:55 pm 23:55 Mostly Cloudy 46 7.5 43 6 90 90 WNW 6 9 30.00 1016 10 16 N/A

Powered by AerisWeather